User: anonymous   Login
Location: Unspecified
(0.0000°N, 0.0000°E)
Time: 00:03:48
(UTC+00:00)
Language:

STARLINK-31069 - Orbit

View from above orbital plane
View from above orbital plane
View from above satellite
View from above satellite

Ground track
Ground track

The orbit is defined by the following mean orbital elements,

1 58607U          26145.27657045 +.00000000 +00000-0 +29589-4 0 00000
2 58607  43.0024  96.3367 0001223 261.1910  98.8803 15.27580735    02
Epoch (UTC): 25 May 2026 06:38:15
Eccentricity: 0.0001223
inclination: 43.0024°
perigee height: 482 km
apogee height: 484 km
right ascension of ascending node: 96.3367°
argument of perigee: 261.1910°
revolutions per day: 15.27580735
mean anomaly at epoch: 98.8803°

The dashed part of the orbit path shows where the satellite is in the earth's shadow,  

DLR